Powrót do katalogu

STARLINK-33923

AktywnyŁącznośćVLEO
NORAD 63786·PAYLOAD·🇺🇸 United States

Wystrzelony May 2, 2025 z Cape Canaveral Space Force Station

Loading…

Następne Przeloty (najbliższe 24 godziny)

TLE

ŚwieżeSource: CelesTrak SupGP

Epoka: Sep 14, 2026, 22:36 UTC

1 63786C 25091M   26257.94215278  .00057937  00000+0  20984-2 0  2579
2 63786  43.0030  63.8147 0001937 274.7547 130.2921 15.27550227    12

Śledź STARLINK-33923 w czasie rzeczywistym z AllMySat

Download on the App Store